QPF
0.00 0.00 0.00 0.00 0.00 0.02 0.04 0.00 0.00 0.01 0.10 0.12 0.15 0.10 0.06 0.08 0.12 0.07 0.02 0.01 0.00 0.00 0.00 0.00 0.00 0.00 0.00 0.00 0.01 0.01 0.01 0.00 0.00 0.00 0.00 0.00 0.00 0.01 0.00 0.00 0.00 0.00 0.00
0.00 0.00 0.00 0.00 0.00 0.02 0.07 0.03 0.00 0.00 0.00 0.00 0.01 0.00 0.02 0.11 0.15 0.10 0.03 0.00 0.00 0.00 0.00 0.00 0.00 0.00 0.00 0.00 0.01 0.00 0.02 0.01 0.00 0.00 0.00 0.00 0.00 0.00 0.00 0.00 0.00 0.00 0.00
0.00 0.00 0.00 0.00 0.00 0.00 0.02 0.06 0.03 0.02 0.01 0.00 0.00 0.01 0.04 0.06 0.15 0.16 0.07 0.01 0.00 0.00 0.00 0.00 0.00 0.00 0.00 0.00 0.00 0.00 0.02 0.02 0.00 0.00 0.00 0.00 0.00 0.00 0.00 0.00 0.00 0.00 0.00
0.00 0.00 0.00 0.00 0.00 0.00 0.00 0.03 0.07 0.09 0.05 0.01 0.00 0.01 0.07 0.11 0.18 0.16 0.10 0.07 0.08 0.05 0.00 0.01 0.01 0.00 0.01 0.01 0.01 0.00 0.01 0.01 0.00 0.00 0.00 0.00 0.00 0.00 0.00 0.00 0.00 0.00 0.00
0.00 0.00 0.00 0.00 0.00 0.00 0.00 0.00 0.02 0.06 0.06 0.01 0.02 0.00 0.03 0.13 0.18 0.14 0.08 0.08 0.08 0.09 0.06 0.05 0.04 0.02 0.03 0.02 0.01 0.00 0.00 0.00 0.00 0.00 0.00 0.00 0.00 0.00 0.00 0.00 0.00 0.00 0.00
0.00 0.00 0.00 0.00 0.00 0.00 0.00 0.00 0.00 0.00 0.01 0.00 0.00 0.00 0.00 0.03 0.04 0.06 0.02 0.03 0.06 0.08 0.06 0.04 0.02 0.01 0.01 0.00 0.00 0.00 0.00 0.00 0.00 0.00 0.00 0.00 0.00 0.00 0.00 0.00 0.00 0.00 0.00
0.00 0.00 0.00 0.00 0.00 0.00 0.00 0.00 0.00 0.00 0.00 0.00 0.00 0.00 0.00 0.00 0.00 0.01 0.01 0.01 0.02 0.04 0.02 0.00 0.00 0.00 0.00 0.00 0.00 0.00 0.00 0.00 0.00 0.00 0.00 0.00 0.00 0.00 0.00 0.00 0.00 0.00 0.00
0.00 0.00 0.00 0.00 0.00 0.00 0.00 0.00 0.00 0.00 0.00 0.00 0.00 0.00 0.00 0.00 0.00 0.00 0.00 0.00 0.00 0.00 0.00 0.00 0.00 0.00 0.00 0.00 0.00 0.00 0.00 0.00 0.00 0.00 0.00 0.00 0.00 0.00 0.00 0.00 0.00 0.00 0.00
0.00 0.00 0.00 0.00 0.00 0.00 0.00 0.00 0.00 0.00 0.00 0.00 0.00 0.00 0.00 0.00 0.00 0.00 0.00 0.00 0.00 0.00 0.00 0.00 0.00 0.00 0.00 0.00 0.00 0.00 0.00 0.00 0.00 0.00 0.00 0.00 0.00 0.00 0.00 0.00 0.00 0.00 0.00
0.00 0.00 0.00 0.00 0.00 0.00 0.00 0.00 0.00 0.00 0.00 0.00 0.00 0.00 0.00 0.00 0.00 0.00 0.00 0.00 0.00 0.00 0.00 0.00 0.00 0.00 0.00 0.00 0.00 0.00 0.00 0.00 0.00 0.00 0.00 0.00 0.00 0.00 0.00 0.00 0.00 0.00 0.00
0.00 0.00 0.00 0.00 0.00 0.00 0.00 0.00 0.00 0.00 0.00 0.00 0.00 0.00 0.00 0.00 0.00 0.00 0.00 0.00 0.00 0.00 0.00 0.00 0.00 0.00 0.00 0.00 0.00 0.00 0.00 0.00 0.00 0.00 0.00 0.00 0.00 0.00 0.00 0.00 0.00 0.00 0.00
0.00 0.00 0.00 0.00 0.00 0.00 0.00 0.00 0.00 0.00 0.00 0.00 0.00 0.00 0.00 0.00 0.00 0.00 0.00 0.00 0.00 0.00 0.00 0.00 0.00 0.00 0.00 0.00 0.00 0.00 0.00 0.00 0.00 0.00 0.00 0.00 0.00 0.00 0.00 0.00 0.00 0.00 0.00
0.00 0.00 0.00 0.00 0.00 0.00 0.00 0.00 0.00 0.00 0.00 0.00 0.00 0.00 0.00 0.00 0.00 0.00 0.00 0.00 0.00 0.00 0.00 0.00 0.00 0.00 0.00 0.00 0.00 0.00 0.00 0.00 0.00 0.00 0.00 0.00 0.00 0.00 0.00 0.00 0.00 0.00 0.00
0.00 0.00 0.00 0.00 0.00 0.00 0.00 0.00 0.00 0.00 0.00 0.00 0.00 0.00 0.00 0.00 0.00 0.00 0.00 0.00 0.00 0.00 0.00 0.00 0.00 0.00 0.00 0.00 0.00 0.00 0.00 0.00 0.00 0.00 0.00 0.00 0.00 0.00 0.00 0.00 0.00 0.00 0.00
0.00 0.00 0.00 0.00 0.00 0.00 0.00 0.00 0.00 0.00 0.00 0.00 0.00 0.00 0.00 0.00 0.00 0.00 0.00 0.00 0.00 0.00 0.00 0.00 0.00 0.00 0.00 0.00 0.00 0.00 0.00 0.00 0.00 0.00 0.00 0.00 0.00 0.00 0.00 0.00 0.00 0.00 0.00
0.00 0.00 0.00 0.00 0.00 0.00 0.00 0.00 0.00 0.00 0.00 0.00 0.00 0.00 0.00 0.00 0.00 0.00 0.00 0.00 0.00 0.00 0.00 0.00 0.00 0.00 0.00 0.00 0.00 0.00 0.00 0.00 0.00 0.00 0.00 0.00 0.00 0.00 0.00 0.00 0.00 0.00 0.00
0.00 0.00 0.00 0.00 0.00 0.00 0.00 0.00 0.00 0.00 0.00 0.00 0.00 0.00 0.00 0.00 0.00 0.00 0.00 0.00 0.00 0.00 0.00 0.00 0.00 0.00 0.00 0.00 0.00 0.00 0.00 0.00 0.00 0.00 0.00 0.00 0.00 0.00 0.00 0.00 0.00 0.00 0.00
0.00 0.00 0.00 0.00 0.00 0.00 0.00 0.00 0.00 0.00 0.00 0.00 0.00 0.00 0.00 0.00 0.00 0.00 0.00 0.00 0.00 0.00 0.00 0.00 0.00 0.00 0.00 0.00 0.00 0.00 0.00 0.00 0.00 0.00 0.00 0.00 0.00 0.00 0.00 0.00 0.00 0.00 0.00
0.00 0.00 0.00 0.00 0.00 0.00 0.00 0.00 0.00 0.00 0.00 0.00 0.00 0.00 0.00 0.00 0.00 0.00 0.00 0.00 0.00 0.00 0.00 0.00 0.00 0.00 0.00 0.00 0.00 0.00 0.00 0.00 0.00 0.00 0.00 0.00 0.00 0.00 0.00 0.00 0.00 0.00 0.00
0.00 0.00 0.00 0.00 0.00 0.00 0.00 0.00 0.00 0.00 0.00 0.00 0.00 0.00 0.00 0.00 0.00 0.00 0.00 0.00 0.00 0.00 0.00 0.00 0.00 0.00 0.00 0.00 0.00 0.00 0.00 0.00 0.00 0.00 0.00 0.00 0.00 0.00 0.00 0.00 0.00 0.00 0.00
0.00 0.00 0.02 0.01 0.00 0.00 0.00 0.00 0.00 0.00 0.00 0.00 0.00 0.00 0.00 0.00 0.00 0.00 0.00 0.00 0.00 0.00 0.00 0.00 0.00 0.00 0.00 0.00 0.00 0.00 0.00 0.00 0.00 0.00 0.00 0.00 0.00 0.00 0.00 0.00 0.00 0.00 0.00
0.00 0.00 0.00 0.00 0.01 0.02 0.01 0.01 0.00 0.00 0.00 0.00 0.00 0.00 0.00 0.00 0.00 0.00 0.00 0.00 0.00 0.00 0.00 0.00 0.00 0.00 0.00 0.00 0.00 0.00 0.00 0.00 0.00 0.00 0.00 0.00 0.00 0.00 0.00 0.00 0.00 0.00 0.00
0.00 0.00 0.00 0.00 0.00 0.00 0.01 0.00 0.00 0.00 0.00 0.00 0.00 0.00 0.00 0.00 0.00 0.00 0.00 0.00 0.00 0.00 0.00 0.00 0.00 0.00 0.00 0.00 0.00 0.00 0.00 0.00 0.00 0.00 0.00 0.00 0.00 0.00 0.00 0.00 0.00 0.00 0.00
0.00 0.00 0.00 0.00 0.00 0.00 0.00 0.00 0.00 0.01 0.00 0.00 0.00 0.00 0.00 0.00 0.00 0.00 0.00 0.00 0.00 0.00 0.00 0.00 0.00 0.00 0.00 0.00 0.00 0.00 0.00 0.00 0.00 0.00 0.00 0.00 0.00 0.00 0.00 0.00 0.00 0.00 0.00
0.00 0.00 0.00 0.00 0.00 0.00 0.01 0.00 0.00 0.00 0.00 0.00 0.00 0.00 0.00 0.00 0.00 0.00 0.00 0.00 0.00 0.00 0.00 0.00 0.00 0.00 0.00 0.00 0.00 0.00 0.00 0.00 0.00 0.00 0.00 0.00 0.00 0.00 0.00 0.00 0.00 0.00 0.00
0.00 0.00 0.00 0.00 0.00 0.00 0.00 0.00 0.00 0.00 0.00 0.00 0.00 0.00 0.00 0.00 0.00 0.00 0.00 0.00 0.00 0.00 0.00 0.00 0.00 0.00 0.00 0.00 0.00 0.00 0.00 0.00 0.00 0.00 0.00 0.00 0.00 0.00 0.00 0.00 0.00 0.00 0.00
MSLP
1007.34 1007.59 1007.72 1007.99 1008.15 1008.43 1008.61 1008.72 1009.00 1008.81 1008.86 1008.83 1009.01 1009.07 1009.22 1009.54 1009.94 1010.19 1010.82 1011.44 1012.05 1012.71 1013.35 1013.70 1014.26 1014.96 1015.56 1016.24 1016.79 1017.60 1018.10 1018.14 1018.66 1019.33 1019.50 1020.02 1020.44 1020.91 1021.38 1021.46 1021.65 1021.98 1022.57
1007.20 1007.55 1007.83 1008.02 1008.28 1008.76 1009.00 1009.01 1009.20 1009.37 1009.36 1009.21 1009.30 1009.43 1009.70 1010.04 1010.40 1010.70 1011.24 1011.86 1012.46 1013.25 1013.93 1014.48 1014.82 1015.31 1015.95 1016.61 1017.21 1017.90 1018.16 1018.12 1018.33 1019.03 1019.71 1020.16 1020.28 1020.36 1021.04 1021.48 1021.65 1021.76 1022.30
1007.04 1007.62 1007.96 1008.21 1008.65 1008.84 1009.10 1009.34 1009.35 1009.61 1009.82 1009.68 1009.81 1009.77 1010.05 1010.27 1010.54 1010.99 1011.41 1012.14 1012.80 1013.44 1014.03 1014.41 1014.90 1015.63 1016.23 1016.83 1017.47 1017.97 1018.09 1017.94 1018.47 1018.96 1019.63 1019.72 1020.07 1020.67 1021.34 1021.42 1021.46 1021.28 1021.29
1006.88 1007.61 1008.11 1008.33 1008.70 1008.79 1008.95 1009.34 1009.63 1009.93 1010.11 1010.33 1010.45 1010.19 1010.36 1010.67 1010.77 1011.31 1011.81 1012.41 1013.10 1013.84 1014.47 1014.54 1014.98 1015.70 1016.31 1016.83 1017.30 1017.60 1017.41 1017.86 1018.42 1018.97 1019.51 1019.84 1020.34 1020.95 1021.22 1021.31 1021.35 1021.20 1021.40
1006.70 1007.54 1008.18 1008.40 1008.51 1008.67 1008.87 1009.09 1009.72 1010.11 1010.12 1010.57 1010.64 1010.66 1010.86 1011.20 1011.42 1011.64 1012.11 1012.71 1013.29 1014.02 1014.45 1014.92 1015.45 1015.89 1016.42 1016.80 1017.06 1017.24 1017.48 1017.88 1018.37 1018.76 1019.33 1019.76 1020.40 1020.66 1020.93 1020.91 1020.98 1020.99 1020.95
1006.54 1007.34 1008.13 1008.43 1008.50 1008.78 1009.02 1009.33 1009.56 1009.80 1010.10 1010.35 1010.82 1011.11 1011.54 1011.92 1011.86 1012.02 1012.38 1012.88 1013.50 1014.06 1014.80 1015.34 1015.84 1016.32 1016.62 1016.66 1016.94 1017.07 1017.11 1017.42 1017.80 1018.37 1018.88 1019.43 1019.73 1020.16 1020.18 1020.30 1020.25 1020.39 1020.52
1006.39 1007.07 1007.82 1008.31 1008.56 1008.92 1009.20 1009.50 1009.76 1010.01 1010.18 1010.87 1011.23 1011.68 1012.07 1012.25 1012.26 1012.52 1012.77 1013.26 1013.81 1014.29 1014.73 1015.33 1015.84 1016.33 1016.40 1016.49 1016.80 1017.00 1017.50 1017.73 1017.76 1017.66 1018.15 1018.59 1018.98 1018.95 1019.24 1019.48 1019.60 1019.79 1019.77
1006.08 1006.66 1007.41 1008.04 1008.49 1008.92 1009.28 1009.66 1010.08 1010.28 1010.61 1011.03 1011.56 1012.08 1012.54 1012.91 1012.83 1012.96 1013.11 1013.43 1013.83 1014.18 1014.53 1014.89 1015.44 1015.90 1016.35 1016.61 1016.87 1017.18 1017.39 1017.36 1017.42 1017.68 1018.11 1018.39 1018.66 1018.96 1018.83 1018.79 1019.09 1019.42 1019.33
1005.65 1006.16 1006.90 1007.56 1008.21 1008.80 1009.21 1009.74 1010.24 1010.57 1010.85 1011.16 1011.61 1012.22 1012.72 1013.18 1013.31 1013.43 1013.46 1013.72 1014.03 1014.29 1014.77 1015.12 1015.59 1016.12 1016.41 1016.65 1017.06 1017.47 1017.42 1017.63 1018.02 1018.27 1018.57 1018.84 1019.06 1019.32 1019.49 1019.34 1019.60 1019.82 1019.60
1005.02 1005.56 1006.35 1007.11 1007.82 1008.56 1009.11 1009.69 1010.20 1010.58 1010.94 1011.15 1011.57 1012.03 1012.70 1013.27 1013.41 1013.60 1013.86 1014.00 1014.48 1014.78 1015.14 1015.56 1015.81 1016.13 1016.50 1016.76 1017.09 1017.26 1017.79 1018.03 1018.02 1018.48 1018.70 1018.76 1019.01 1019.13 1019.13 1019.06 1019.36 1019.96 1020.22
1004.49 1005.06 1005.84 1006.66 1007.46 1008.28 1009.02 1009.63 1010.20 1010.61 1010.86 1011.11 1011.48 1011.92 1012.44 1013.11 1013.69 1013.88 1014.26 1014.55 1014.54 1014.99 1015.30 1015.78 1016.29 1016.38 1016.80 1017.26 1017.46 1017.51 1017.94 1017.99 1018.01 1018.34 1018.47 1018.38 1018.37 1018.45 1018.55 1019.12 1019.49 1019.68 1020.07
1003.98 1004.54 1005.34 1006.25 1007.01 1007.88 1008.80 1009.57 1010.12 1010.52 1010.71 1011.07 1011.33 1011.82 1012.22 1012.94 1013.35 1013.81 1014.26 1014.57 1014.79 1014.79 1015.13 1015.61 1016.31 1016.75 1017.19 1017.50 1017.62 1017.83 1017.78 1017.98 1018.15 1018.29 1018.30 1018.27 1018.23 1019.00 1018.92 1019.10 1019.37 1019.64 1019.89
1003.57 1004.13 1004.99 1005.94 1006.77 1007.52 1008.48 1009.27 1009.94 1010.42 1010.62 1010.91 1011.19 1011.60 1012.03 1012.57 1013.36 1013.70 1014.28 1014.79 1014.94 1014.94 1014.87 1015.26 1016.02 1016.71 1017.17 1017.59 1017.90 1018.16 1018.14 1018.14 1018.28 1018.41 1018.49 1018.76 1019.11 1019.53 1019.28 1019.49 1019.79 1020.11 1019.97
1003.20 1003.81 1004.70 1005.66 1006.47 1007.37 1008.11 1008.85 1009.41 1009.94 1010.33 1010.59 1010.85 1011.19 1011.45 1012.12 1012.98 1013.74 1014.39 1014.89 1015.17 1015.50 1015.71 1016.07 1016.36 1016.89 1017.28 1017.55 1017.91 1018.05 1018.17 1018.11 1018.02 1018.21 1018.61 1019.19 1019.30 1019.61 1020.08 1020.23 1020.33 1020.60 1020.59
1002.72 1003.43 1004.33 1005.25 1006.04 1006.98 1007.53 1008.09 1008.74 1009.19 1009.66 1009.83 1010.16 1010.43 1010.79 1011.33 1011.95 1012.83 1013.61 1014.31 1014.77 1014.92 1015.40 1015.98 1016.40 1016.72 1017.01 1017.12 1017.12 1017.25 1017.48 1017.71 1018.28 1018.80 1019.23 1019.81 1020.36 1020.71 1020.88 1020.85 1020.90 1020.82 1020.88
1002.17 1002.88 1003.66 1004.56 1005.55 1006.24 1006.96 1007.59 1008.25 1008.55 1009.03 1009.67 1009.76 1009.73 1009.96 1010.39 1011.19 1012.19 1012.98 1013.65 1014.20 1014.62 1014.95 1015.21 1015.58 1015.84 1016.08 1016.27 1016.45 1016.78 1017.23 1018.07 1018.59 1019.30 1020.05 1020.56 1020.95 1021.32 1021.46 1021.24 1021.05 1020.95 1021.00
1001.45 1002.22 1003.06 1003.77 1004.76 1005.49 1006.25 1006.89 1007.90 1008.98 1009.14 1009.37 1009.37 1009.62 1009.60 1009.94 1010.52 1011.41 1012.29 1013.14 1013.80 1014.37 1014.67 1014.73 1014.69 1014.91 1015.03 1015.33 1016.18 1017.12 1018.13 1018.84 1019.38 1019.93 1020.53 1021.29 1021.42 1021.33 1021.22 1021.31 1021.57 1021.61 1021.52
1000.77 1001.49 1002.29 1003.08 1003.55 1004.50 1005.15 1005.97 1006.48 1007.51 1008.60 1009.43 1009.64 1009.65 1009.81 1009.96 1010.63 1011.15 1012.05 1012.95 1014.05 1014.29 1014.21 1014.06 1014.08 1014.30 1014.58 1015.66 1016.61 1017.60 1018.63 1019.45 1019.94 1020.69 1021.26 1021.89 1022.28 1021.74 1021.56 1021.76 1021.84 1021.92 1021.97
999.95 1000.67 1001.45 1002.22 1002.90 1003.39 1004.15 1004.85 1005.53 1005.94 1006.91 1007.99 1009.47 1010.14 1010.68 1010.94 1011.34 1011.59 1011.54 1011.98 1012.76 1013.24 1013.46 1013.44 1013.39 1014.04 1014.90 1015.93 1017.10 1018.01 1018.67 1019.26 1020.02 1020.62 1020.71 1020.80 1021.07 1022.22 1022.19 1022.21 1022.11 1022.19 1022.34
999.07 999.79 1000.62 1001.36 1002.06 1002.50 1002.95 1003.38 1004.09 1004.75 1005.30 1006.38 1007.60 1009.03 1010.27 1011.05 1011.60 1011.95 1011.87 1011.68 1011.95 1012.16 1012.33 1012.84 1013.74 1014.47 1015.51 1016.72 1017.71 1018.55 1019.23 1020.15 1020.68 1021.40 1021.29 1021.65 1021.57 1021.60 1022.41 1022.35 1022.29 1022.29 1022.50
997.96 999.19 1000.08 1000.75 1001.04 1001.44 1001.69 1002.19 1002.69 1003.31 1003.97 1004.69 1005.97 1007.51 1008.17 1009.28 1010.07 1010.79 1011.12 1011.35 1011.45 1011.48 1011.88 1012.66 1013.93 1015.15 1016.25 1017.19 1018.13 1018.85 1019.41 1019.95 1020.71 1020.83 1021.53 1021.62 1021.78 1022.13 1022.21 1022.39 1022.37 1022.46 1022.57
996.92 997.84 999.23 999.78 1000.25 1000.98 1001.05 1001.60 1001.45 1001.98 1002.52 1003.39 1004.65 1006.46 1007.59 1007.92 1008.80 1009.42 1010.02 1010.62 1011.02 1011.61 1012.31 1012.99 1014.17 1015.47 1016.37 1017.34 1018.15 1018.92 1019.70 1020.22 1020.42 1020.87 1021.23 1021.55 1021.86 1021.78 1021.99 1022.13 1022.27 1022.44 1022.64
996.64 997.02 997.95 998.91 999.52 1000.12 1000.59 1001.21 1001.30 1001.12 1001.46 1002.12 1003.79 1005.79 1007.38 1007.76 1007.90 1008.27 1009.21 1010.31 1011.21 1011.88 1012.64 1013.55 1014.61 1015.94 1016.90 1017.68 1018.43 1019.16 1019.85 1020.37 1020.98 1020.94 1021.36 1021.55 1021.72 1021.82 1021.81 1022.14 1022.40 1022.65 1022.91
996.24 996.63 997.07 997.78 998.77 999.44 999.84 1000.09 1000.59 1000.39 1001.11 1002.58 1003.76 1004.89 1006.00 1007.13 1007.74 1008.10 1009.10 1010.40 1011.16 1012.16 1012.95 1013.91 1015.29 1016.43 1017.29 1017.82 1018.35 1019.01 1019.64 1020.51 1020.96 1021.15 1021.25 1021.24 1021.56 1021.67 1021.88 1022.31 1022.57 1022.72 1022.90
996.28 996.41 996.55 997.13 997.83 998.64 999.18 999.73 1000.18 1000.87 1001.37 1002.49 1003.73 1004.73 1005.59 1006.33 1007.34 1008.65 1009.44 1010.39 1011.52 1012.73 1013.84 1014.89 1016.01 1016.86 1017.50 1018.22 1019.23 1019.16 1020.06 1020.85 1021.26 1021.37 1021.27 1021.17 1021.44 1021.79 1022.19 1022.57 1022.68 1022.81 1022.99
996.42 996.51 996.66 996.80 997.58 998.44 999.04 999.63 1000.24 1000.89 1001.89 1002.98 1003.87 1005.12 1006.22 1007.24 1008.07 1008.96 1010.30 1011.44 1012.43 1013.28 1014.26 1015.53 1016.72 1017.67 1018.36 1019.01 1019.62 1020.45 1021.01 1021.39 1021.54 1021.57 1021.37 1021.33 1021.49 1022.10 1022.49 1022.66 1022.75 1022.90 1023.12
Thickness
5668 5665 5662 5658 5655 5650 5646 5641 5636 5637 5636 5635 5634 5634 5633 5634 5636 5639 5637 5637 5636 5635 5636 5639 5638 5636 5637 5634 5635 5634 5636 5640 5639 5641 5643 5642 5640 5638 5636 5638 5640 5642 5638
5671 5666 5662 5659 5656 5649 5646 5643 5640 5637 5638 5638 5638 5636 5636 5635 5636 5637 5638 5638 5636 5633 5631 5633 5634 5635 5634 5632 5632 5631 5635 5640 5643 5640 5640 5640 5642 5644 5640 5638 5638 5637 5634
5675 5668 5663 5660 5654 5652 5649 5646 5644 5641 5639 5641 5641 5640 5639 5640 5640 5639 5641 5639 5637 5633 5630 5634 5634 5633 5631 5632 5632 5633 5636 5642 5641 5643 5640 5644 5643 5639 5636 5636 5637 5641 5641
5678 5670 5664 5662 5658 5657 5656 5652 5648 5644 5641 5640 5640 5644 5643 5643 5645 5644 5642 5640 5638 5633 5631 5634 5635 5636 5637 5637 5637 5638 5644 5645 5644 5643 5642 5642 5640 5637 5636 5638 5636 5640 5637
5681 5673 5666 5665 5664 5663 5661 5658 5652 5647 5647 5642 5643 5644 5645 5643 5645 5646 5645 5643 5641 5638 5637 5637 5637 5638 5638 5638 5641 5643 5645 5645 5643 5642 5641 5642 5638 5637 5635 5637 5636 5637 5638
5684 5676 5670 5668 5667 5664 5663 5661 5659 5655 5652 5651 5648 5647 5645 5644 5643 5647 5648 5646 5642 5639 5638 5637 5635 5635 5637 5642 5645 5648 5651 5650 5649 5646 5645 5643 5641 5638 5642 5642 5642 5640 5634
5686 5682 5676 5672 5669 5667 5665 5663 5661 5659 5658 5652 5650 5647 5645 5646 5645 5647 5650 5648 5645 5643 5642 5640 5639 5640 5643 5645 5644 5647 5645 5646 5650 5656 5651 5650 5647 5651 5648 5646 5643 5641 5639
5691 5687 5681 5677 5673 5671 5668 5665 5663 5662 5660 5657 5654 5651 5648 5646 5649 5650 5654 5652 5649 5649 5649 5649 5647 5647 5648 5649 5649 5650 5651 5656 5660 5657 5655 5655 5652 5648 5649 5649 5643 5639 5637
5695 5693 5688 5684 5678 5675 5672 5669 5667 5666 5664 5662 5659 5655 5653 5651 5651 5652 5656 5655 5653 5653 5651 5652 5651 5650 5650 5651 5651 5648 5652 5653 5651 5651 5651 5649 5647 5644 5640 5638 5631 5625 5625
5702 5700 5697 5692 5686 5680 5677 5674 5672 5670 5668 5668 5666 5664 5658 5655 5653 5654 5654 5655 5653 5653 5652 5651 5652 5653 5651 5652 5650 5650 5645 5644 5646 5644 5644 5643 5640 5636 5637 5634 5628 5617 5609
5711 5708 5702 5697 5691 5686 5681 5677 5674 5672 5671 5671 5669 5667 5665 5661 5657 5656 5653 5654 5656 5653 5652 5651 5648 5649 5648 5645 5645 5646 5644 5644 5646 5642 5639 5639 5639 5638 5635 5624 5615 5608 5599
5715 5712 5706 5700 5696 5690 5684 5680 5677 5674 5673 5671 5670 5669 5669 5664 5661 5657 5656 5656 5655 5659 5657 5655 5651 5648 5646 5645 5644 5641 5643 5641 5638 5636 5635 5633 5631 5622 5620 5615 5611 5603 5596
5715 5712 5708 5703 5699 5694 5687 5681 5677 5675 5675 5674 5673 5670 5669 5668 5663 5660 5655 5652 5652 5656 5658 5657 5649 5645 5642 5638 5635 5634 5634 5633 5630 5628 5626 5624 5618 5613 5610 5602 5593 5583 5577
5715 5712 5709 5703 5699 5695 5691 5686 5682 5679 5677 5677 5676 5674 5674 5671 5666 5661 5657 5652 5651 5651 5646 5644 5642 5638 5636 5635 5629 5627 5629 5629 5628 5625 5620 5612 5607 5598 5588 5582 5577 5569 5563
5716 5714 5709 5705 5700 5695 5694 5692 5688 5687 5684 5683 5682 5682 5678 5675 5674 5669 5663 5658 5655 5654 5649 5642 5639 5636 5634 5633 5633 5632 5630 5624 5618 5612 5604 5596 5587 5580 5574 5569 5562 5556 5547
5717 5714 5712 5707 5701 5698 5694 5692 5687 5689 5686 5683 5684 5688 5688 5686 5676 5669 5664 5658 5654 5650 5647 5644 5640 5638 5635 5633 5631 5630 5624 5613 5606 5599 5589 5581 5574 5566 5560 5554 5549 5542 5535
5719 5716 5712 5709 5704 5700 5696 5693 5687 5680 5678 5679 5683 5683 5686 5685 5677 5670 5663 5656 5650 5644 5643 5642 5642 5640 5638 5635 5628 5620 5609 5601 5593 5585 5576 5565 5558 5554 5550 5543 5535 5527 5519
5722 5716 5715 5710 5710 5703 5700 5695 5695 5689 5684 5679 5674 5679 5675 5673 5671 5666 5657 5651 5642 5639 5640 5640 5640 5639 5636 5625 5615 5604 5594 5585 5579 5568 5559 5549 5540 5540 5535 5526 5518 5509 5501
5725 5722 5718 5713 5709 5707 5703 5699 5695 5695 5689 5683 5673 5668 5662 5659 5656 5655 5655 5654 5647 5641 5637 5637 5637 5634 5623 5613 5602 5592 5584 5577 5566 5557 5552 5547 5539 5524 5516 5510 5505 5494 5487
5727 5722 5718 5714 5710 5707 5706 5703 5699 5694 5693 5688 5682 5672 5661 5655 5652 5648 5647 5648 5646 5643 5641 5636 5627 5620 5610 5598 5587 5578 5570 5559 5551 5541 5537 5529 5523 5517 5504 5499 5493 5486 5475
5727 5720 5714 5712 5711 5710 5708 5705 5702 5699 5695 5694 5688 5680 5667 5663 5657 5649 5644 5641 5640 5638 5636 5629 5617 5605 5593 5584 5574 5566 5558 5551 5541 5535 5524 5519 5511 5501 5493 5486 5479 5471 5465
5728 5724 5715 5712 5710 5704 5707 5703 5705 5702 5700 5695 5687 5681 5663 5663 5657 5653 5646 5639 5636 5629 5622 5615 5607 5593 5583 5573 5564 5555 5546 5537 5532 5523 5514 5508 5498 5494 5485 5477 5471 5464 5456
5723 5720 5715 5711 5708 5700 5698 5692 5695 5700 5699 5693 5681 5668 5659 5655 5654 5653 5642 5632 5625 5618 5610 5602 5592 5579 5569 5561 5552 5542 5533 5525 5514 5510 5503 5495 5488 5481 5476 5468 5461 5453 5443
5718 5714 5711 5707 5702 5699 5695 5692 5689 5691 5690 5679 5670 5665 5657 5648 5645 5641 5630 5621 5616 5606 5598 5589 5577 5567 5558 5550 5542 5533 5526 5513 5503 5497 5492 5486 5478 5473 5467 5458 5450 5441 5430
5708 5706 5706 5703 5699 5697 5693 5689 5684 5679 5676 5670 5663 5656 5648 5643 5634 5623 5618 5612 5603 5591 5581 5572 5561 5552 5544 5536 5524 5521 5511 5501 5493 5486 5481 5476 5471 5464 5455 5446 5438 5429 5419
5698 5696 5693 5698 5693 5690 5686 5681 5675 5671 5662 5657 5652 5642 5634 5626 5620 5614 5602 5590 5582 5575 5567 5554 5543 5533 5525 5517 5510 5500 5491 5485 5481 5476 5472 5467 5461 5452 5444 5435 5428 5420 5410